| time (UTC) | temp F | wind direction | speed MPH | gust MPH | rain 1hr in | rain 24hr in | rain mn in | humidity % | barometer mb |
| 20260507040058 | 52 | 64 | 5.0 | 10.0 | 0.02 | 0.30 | 0.00 | 89 | 1004.9 |
| 20260507034550 | 53 | 35 | 3.0 | 7.0 | 0.02 | 0.29 | 0.29 | 89 | 1004.7 |
| 20260507033050 | 54 | 351 | 3.0 | 9.0 | 0.03 | 0.28 | 0.28 | 89 | 1004.9 |
| 20260507031548 | 55 | 5 | 3.0 | 9.0 | 0.03 | 0.28 | 0.28 | 88 | 1004.4 |
| 20260507030052 | 56 | 360 | 2.0 | 6.0 | 0.03 | 0.28 | 0.28 | 88 | 1004.3 |
| 20260507024549 | 57 | 20 | 1.0 | 10.0 | 0.03 | 0.27 | 0.27 | 88 | 1004.0 |
| 20260507023057 | 58 | 0 | 0.0 | 0.0 | 0.01 | 0.25 | 0.25 | 89 | 1003.7 |
| 20260507021605 | 58 | 0 | 0.0 | 2.0 | 0.01 | 0.25 | 0.25 | 88 | 1003.8 |
| 20260507020057 | 58 | 0 | 0.0 | 4.0 | 0.00 | 0.24 | 0.24 | 88 | 1003.8 |
| 20260507014557 | 58 | 0 | 0.0 | 0.0 | 0.00 | 0.24 | 0.24 | 88 | 1003.7 |
| 20260507013054 | 58 | 171 | 1.0 | 5.0 | 0.00 | 0.24 | 0.24 | 88 | 1003.6 |
| 20260507011600 | 58 | 0 | 0.0 | 3.0 | 0.00 | 0.24 | 0.24 | 88 | 1003.9 |
| 20260507010055 | 58 | 0 | 0.0 | 5.0 | 0.00 | 0.24 | 0.24 | 88 | 1003.6 |
| 20260507004600 | 58 | 179 | 0.0 | 4.0 | 0.00 | 0.24 | 0.24 | 88 | 1003.7 |
| 20260507003056 | 58 | 174 | 1.0 | 9.0 | 0.00 | 0.24 | 0.24 | 88 | 1003.8 |
| 20260507001606 | 59 | 207 | 2.0 | 9.0 | 0.00 | 0.24 | 0.24 | 88 | 1003.5 |
| 20260507000057 | 59 | 183 | 3.0 | 12.0 | 0.01 | 0.24 | 0.24 | 88 | 1003.2 |
| 20260506234615 | 59 | 213 | 4.0 | 9.0 | 0.01 | 0.24 | 0.24 | 88 | 1003.1 |
| 20260506233056 | 59 | 189 | 3.0 | 11.0 | 0.01 | 0.24 | 0.24 | 88 | 1003.1 |
| 20260506231546 | 59 | 189 | 4.0 | 16.0 | 0.02 | 0.24 | 0.24 | 88 | 1003.1 |
| 20260506230056 | 59 | 220 | 3.0 | 12.0 | 0.02 | 0.23 | 0.23 | 88 | 1002.9 |
| 20260506224548 | 59 | 146 | 4.0 | 15.0 | 0.03 | 0.23 | 0.23 | 88 | 1003.1 |
| 20260506223056 | 59 | 160 | 3.0 | 9.0 | 0.05 | 0.23 | 0.23 | 88 | 1003.4 |
| 20260506221555 | 59 | 168 | 2.0 | 10.0 | 0.05 | 0.22 | 0.22 | 87 | 1003.5 |
| 20260506220053 | 59 | 0 | 1.0 | 8.0 | 0.04 | 0.21 | 0.21 | 88 | 1003.7 |
| 20260506214554 | 60 | 0 | 3.0 | 8.0 | 0.03 | 0.20 | 0.20 | 87 | 1004.0 |
| 20260506213055 | 60 | 171 | 4.0 | 10.0 | 0.03 | 0.18 | 0.18 | 87 | 1004.2 |
| 20260506211554 | 60 | 153 | 1.0 | 8.0 | 0.05 | 0.17 | 0.17 | 87 | 1004.4 |
| 20260506210059 | 60 | 187 | 2.0 | 10.0 | 0.07 | 0.17 | 0.17 | 87 | 1004.6 |
| 20260506204600 | 60 | 195 | 2.0 | 10.0 | 0.08 | 0.17 | 0.17 | 87 | 1004.7 |
| 20260506203053 | 60 | 184 | 4.0 | 11.0 | 0.07 | 0.15 | 0.15 | 87 | 1004.7 |
| 20260506201556 | 60 | 201 | 3.0 | 8.0 | 0.05 | 0.12 | 0.12 | 87 | 1004.6 |
| 20260506200107 | 61 | 189 | 3.0 | 11.0 | 0.03 | 0.10 | 0.10 | 87 | 1004.6 |
| 20260506194606 | 61 | 188 | 5.0 | 16.0 | 0.03 | 0.09 | 0.09 | 87 | 1004.8 |
| 20260506193055 | 61 | 168 | 4.0 | 12.0 | 0.03 | 0.08 | 0.08 | 87 | 1005.1 |
| 20260506191553 | 61 | 189 | 4.0 | 10.0 | 0.03 | 0.07 | 0.07 | 87 | 1005.1 |
| 20260506190050 | 61 | 158 | 2.0 | 7.0 | 0.05 | 0.07 | 0.07 | 87 | 1005.1 |
| 20260506184550 | 61 | 197 | 0.0 | 0.0 | 0.04 | 0.06 | 0.06 | 87 | 1005.4 |
| 20260506183101 | 61 | 0 | 0.0 | 5.0 | 0.05 | 0.05 | 0.05 | 87 | 1005.8 |
| 20260506181554 | 62 | 213 | 2.0 | 4.0 | 0.04 | 0.04 | 0.04 | 86 | 1005.9 |
| 20260506180055 | 63 | 198 | 1.0 | 5.0 | 0.02 | 0.02 | 0.02 | 85 | 1005.7 |
| 20260506174550 | 64 | 169 | 2.0 | 7.0 | 0.02 | 0.02 | 0.02 | 82 | 1005.8 |
| 20260506173055 | 66 | 209 | 3.0 | 9.0 | 0.00 | 0.00 | 0.00 | 77 | 1005.7 |
| 20260506171550 | 66 | 209 | 4.0 | 10.0 | 0.00 | 0.00 | 0.00 | 76 | 1005.7 |
| 20260506170053 | 65 | 138 | 2.0 | 10.0 | 0.00 | 0.00 | 0.00 | 76 | 1006.0 |
| 20260506164553 | 65 | 169 | 2.0 | 9.0 | 0.00 | 0.00 | 0.00 | 78 | 1006.0 |
| 20260506163055 | 64 | 221 | 1.0 | 7.0 | 0.00 | 0.00 | 0.00 | 79 | 1006.8 |
| 20260506161603 | 64 | 222 | 1.0 | 11.0 | 0.00 | 0.00 | 0.00 | 78 | 1007.3 |
| 20260506160056 | 65 | 175 | 4.0 | 10.0 | 0.00 | 0.00 | 0.00 | 76 | 1007.6 |
| 20260506154555 | 65 | 182 | 1.0 | 10.0 | 0.00 | 0.00 | 0.00 | 75 | 1007.4 |
| 20260506153048 | 65 | 171 | 4.0 | 10.0 | 0.00 | 0.00 | 0.00 | 74 | 1007.5 |
| 20260506151604 | 64 | 211 | 3.0 | 15.0 | 0.00 | 0.00 | 0.00 | 75 | 1008.0 |
| 20260506150052 | 65 | 239 | 2.0 | 12.0 | 0.00 | 0.00 | 0.00 | 73 | 1007.7 |
| 20260506144551 | 65 | 209 | 5.0 | 15.0 | 0.00 | 0.00 | 0.00 | 73 | 1007.6 |
| 20260506143056 | 65 | 190 | 2.0 | 10.0 | 0.00 | 0.00 | 0.00 | 74 | 1007.7 |
| 20260506141547 | 64 | 208 | 2.0 | 7.0 | 0.00 | 0.00 | 0.00 | 73 | 1007.4 |
| 20260506140056 | 64 | 173 | 0.0 | 6.0 | 0.00 | 0.00 | 0.00 | 74 | 1007.8 |
| 20260506134553 | 63 | 0 | 1.0 | 6.0 | 0.00 | 0.00 | 0.00 | 75 | 1008.1 |
| 20260506133056 | 63 | 0 | 0.0 | 0.0 | 0.00 | 0.00 | 0.00 | 74 | 1008.0 |
| 20260506131601 | 63 | 0 | 0.0 | 3.0 | 0.00 | 0.00 | 0.00 | 75 | 1008.2 |
| 20260506130120 | 62 | 0 | 0.0 | 0.0 | 0.00 | 0.00 | 0.00 | 76 | 1008.0 |
| 20260506124555 | 62 | 0 | 0.0 | 2.0 | 0.00 | 0.00 | 0.00 | 75 | 1008.0 |
| 20260506123058 | 62 | 215 | 0.0 | 6.0 | 0.00 | 0.00 | 0.00 | 77 | 1008.3 |
| 20260506121555 | 61 | 209 | 2.0 | 9.0 | 0.00 | 0.00 | 0.00 | 81 | 1008.3 |
| 20260506120100 | 59 | 0 | 0.0 | 4.0 | 0.00 | 0.00 | 0.00 | 85 | 1008.3 |
| 20260506114550 | 58 | 0 | 1.0 | 3.0 | 0.00 | 0.00 | 0.00 | 87 | 1008.6 |
| 20260506113058 | 57 | 183 | 0.0 | 5.0 | 0.00 | 0.00 | 0.00 | 87 | 1008.5 |
| 20260506111554 | 56 | 0 | 0.0 | 2.0 | 0.00 | 0.00 | 0.00 | 87 | 1008.7 |
| 20260506110059 | 55 | 0 | 0.0 | 0.0 | 0.00 | 0.00 | 0.00 | 88 | 1008.5 |
| 20260506104610 | 55 | 0 | 0.0 | 0.0 | 0.00 | 0.00 | 0.00 | 87 | 1008.7 |
| 20260506103048 | 55 | 0 | 0.0 | 0.0 | 0.00 | 0.00 | 0.00 | 87 | 1008.6 |
| 20260506101554 | 55 | 0 | 0.0 | 0.0 | 0.00 | 0.00 | 0.00 | 87 | 1008.4 |
| 20260506100048 | 55 | 0 | 0.0 | 0.0 | 0.00 | 0.00 | 0.00 | 87 | 1008.3 |
| 20260506094556 | 55 | 0 | 0.0 | 0.0 | 0.00 | 0.00 | 0.00 | 87 | 1008.2 |
| 20260506093055 | 56 | 0 | 0.0 | 0.0 | 0.00 | 0.00 | 0.00 | 87 | 1008.3 |
| 20260506091554 | 56 | 0 | 0.0 | 0.0 | 0.00 | 0.00 | 0.00 | 86 | 1008.4 |
| 20260506090050 | 57 | 0 | 0.0 | 0.0 | 0.00 | 0.00 | 0.00 | 86 | 1008.1 |
| 20260506084554 | 57 | 0 | 0.0 | 0.0 | 0.00 | 0.00 | 0.00 | 86 | 1008.1 |
| 20260506083048 | 57 | 0 | 0.0 | 5.0 | 0.00 | 0.00 | 0.00 | 86 | 1008.1 |
| 20260506081556 | 57 | 194 | 1.0 | 6.0 | 0.00 | 0.00 | 0.00 | 86 | 1008.0 |
| 20260506073100 | 58 | 0 | 1.0 | 5.0 | 0.00 | 0.00 | 0.00 | 86 | 1007.7 |
| 20260506071607 | 58 | 0 | 0.0 | 1.0 | 0.00 | 0.00 | 0.00 | 85 | 1007.7 |
| 20260506061546 | 58 | 173 | 1.0 | 5.0 | 0.00 | 0.00 | 0.00 | 85 | 1007.3 |
| 20260506044559 | 59 | 160 | 1.0 | 6.0 | 0.00 | 0.00 | 0.00 | 84 | 1007.5 |
| 20260506043053 | 59 | 0 | 0.0 | 0.0 | 0.00 | 0.00 | 0.00 | 83 | 1007.6 |
| 20260506041604 | 60 | 0 | 0.0 | 5.0 | 0.00 | 0.00 | 0.00 | 83 | 1007.7 |